Main page
METAR-TAF:

METAR-TAF

Airports :

RNAS Culdrose (HMS Seahawk)

Culdrose, England

latitude: 50-05N, longitude: 005-15W, elevation: 78 m

Current weather observation

The report was made 1 hour and 9 minutes ago, at 21:50 UTC
Wind 21 kt from the South
Temperature 11°C
Humidity 100%
Pressure 1005 hPa
Visibility: 1700 m

METAR: EGDR 052150Z AUTO 19021KT 1700 // OVC001/// 11/11 Q1005

Time: 23:59 (22:59 UTC)


TAF: missing

Weather observations and forecasts of more than 4000 airports (METAR and TAF reports).

The available stations are represented by yellow and red dots on the map.

Hover mouse over dot to see the name of the station.

Then click to see weather observations and forecasts.

To change the map : click on the green buttons with a black cross to zoom in, on the green button with a dash to zoom out, or on the green arrows for adjacent maps.


METAR-TAF: